User: anonymous   Login
Location: Skalnate Pleso
(49.1889°N, 20.2450°E)
Time: 14:48:32
(UTC+01:00)
Language:

Cosmos 1269 Rocket - Orbit

View from above orbital plane
View from above orbital plane
View from above satellite
View from above satellite

Ground track
Ground track

The orbit data is extracted from the following two-line orbital elements,

1 12443U 81041B   20020.91083244 -.00000059 +00000-0 -11606-4 0  9997
2 12443 074.0519 232.8098 0003432 103.7379 256.4155 14.34723018023664
Epoch (UTC): 20 January 2020 21:51:35
Eccentricity: 0.0003432
inclination: 74.0519°
perigee height: 773 km
apogee height: 778 km
right ascension of ascending node: 232.8098°
argument of perigee: 103.7379°
revolutions per day: 14.34723018
mean anomaly at epoch: 256.4155°
orbit number at epoch: 2366

The dashed part of the orbit path shows where the satellite is in the earth's shadow,  

DLR